This is the latest recevied weather packets stored in our database for station/object HB9TJM-8. If no packets are shown the sender has not sent any weather packets the latest 10 day(s).
| Time | Temp. | Humidity | Pressure | Rain* | Wind** | Luminosity | Snow |
|---|---|---|---|---|---|---|---|
| 1777348157 | 11.11° C | 56% | 1016.5 hPa | 0 mm | - | 0 W/m² | - |
| 1777347850 | 11.67° C | 55% | 1016.3 hPa | 0 mm | - | 0 W/m² | - |
| 1777347850 | 11.67° C | 55% | 1016.3 hPa | 0 mm | - | 0 W/m² | - |
| 1777347542 | 11.67° C | 52% | 1016.5 hPa | 0 mm | - | 0 W/m² | - |
| 1777347235 | 11.67° C | 54% | 1016.6 hPa | 0 mm | - | 0 W/m² | - |
| 1777346927 | 11.67° C | 54% | 1016.3 hPa | 0 mm | - | 0 W/m² | - |
| 1777346620 | 11.67° C | 52% | 1016.6 hPa | 0 mm | - | 0 W/m² | - |
| 1777346619 | 11.67° C | 52% | 1016.6 hPa | 0 mm | - | 0 W/m² | - |
| 1777346313 | 11.67° C | 54% | 1016.7 hPa | 0 mm | - | 0 W/m² | - |
| 1777346312 | 11.67° C | 54% | 1016.7 hPa | 0 mm | - | 0 W/m² | - |
| 1777346005 | 11.67° C | 53% | 1016.4 hPa | 0 mm | - | 0 W/m² | - |
| 1777345697 | 12.22° C | 52% | 1016.6 hPa | 0 mm | - | 0 W/m² | - |
| 1777345390 | 12.22° C | 51% | 1016.7 hPa | 0 mm | - | 0 W/m² | - |
| 1777345082 | 11.67° C | 54% | 1016.4 hPa | 0 mm | - | 0 W/m² | - |
| 1777345082 | 11.67° C | 54% | 1016.4 hPa | 0 mm | - | 0 W/m² | - |
| 1777344774 | 11.67° C | 53% | 1016.8 hPa | 0 mm | - | 0 W/m² | - |
| 1777344774 | 11.67° C | 53% | 1016.8 hPa | 0 mm | - | 0 W/m² | - |
| 1777344467 | 11.67° C | 51% | 1016.8 hPa | 0 mm | - | 0 W/m² | - |
| 1777344467 | 11.67° C | 51% | 1016.8 hPa | 0 mm | - | 0 W/m² | - |
| 1777343852 | 11.67° C | 53% | 1016.9 hPa | 0 mm | - | 0 W/m² | - |
| 1777343851 | 11.67° C | 53% | 1016.9 hPa | 0 mm | - | 0 W/m² | - |
| 1777343544 | 11.67° C | 53% | 1017.1 hPa | 0 mm | - | 0 W/m² | - |
| 1777343544 | 11.67° C | 53% | 1017.1 hPa | 0 mm | - | 0 W/m² | - |
| 1777343237 | 11.67° C | 53% | 1016.3 hPa | 0 mm | - | 0 W/m² | - |
| 1777343236 | 11.67° C | 53% | 1016.3 hPa | 0 mm | - | 0 W/m² | - |
* Rain latest hour (hover to see other rain measurements)
** Current wind speed in m/s (hover to see current wind gust speed)